Location: Newark
(50.4348°N, 30.5552°E)
Time: 00:11:45
(UTC+00:00)

Tiros 1 despin weight - Pass Details

Date: 28 January 2020
Orbit: 594 x 642 km, 48.2° (Epoch: 24 February)

Event Time Altitude Azimuth Distance (km) Brightness Sun altitude
Rises 07:10:49 0° 192° (SSW) 2,836 ? 10.7°
Reaches altitude 10° 07:14:18 10° 164° (SSE) 1,949 ? 11.1°
Maximum altitude 07:16:14 13° 138° (SE) 1,784 ? 11.3°
Drops below altitude 10° 07:18:12 10° 112° (ESE) 1,967 ? 11.5°
Sets 07:21:44 0° 84° (E) 2,889 ? 11.9°
